When you browse on this site, cookies collect data to enhance your experience and personalize the content and advertising you see.
Visit our Privacy Policy to learn more. By continuing to use the site, you agree to this use of cookies and data.

Météo par heure à Wucheng

Ce jour, 5 Juillet, Dimanche

Heure Température Précipitation Vent Pression Humidité
00:00 +26°C° 0.3 mm 1 m/s 734 mmHg 98%
01:00 +26°C° 0.3 mm 1 m/s 733 mmHg 98%
02:00 +25°C° 0 mm 1 m/s 733 mmHg 98%
03:00 +25°C° 0.1 mm 1 m/s 733 mmHg 98%
04:00 +25°C° 0.1 mm 1 m/s 732 mmHg 98%
05:00 +23°C° 0.1 mm 0 m/s 732 mmHg 98%
06:00 +26°C° 0.4 mm 1 m/s 732 mmHg 98%
07:00 +26°C° 0.4 mm 1 m/s 732 mmHg 97%
08:00 +27°C° 0 mm 1 m/s 732 mmHg 98%
09:00 +27°C° 0.6 mm 1 m/s 732 mmHg 97%
10:00 +27°C° 0.6 mm 1 m/s 732 mmHg 97%
11:00 +27°C° 0.6 mm 1 m/s 731 mmHg 96%
12:00 +27°C° 2 mm 1 m/s 731 mmHg 96%
13:00 +27°C° 2 mm 2 m/s 731 mmHg 96%
14:00 +28°C° 0 mm 2 m/s 731 mmHg 94%
15:00 +28°C° 1 mm 2 m/s 731 mmHg 95%
16:00 +27°C° 1 mm 2 m/s 731 mmHg 96%
17:00 +27°C° 1 mm 1 m/s 731 mmHg 97%
18:00 +27°C° 0.2 mm 1 m/s 731 mmHg 97%
19:00 +26°C° 0.2 mm 1 m/s 731 mmHg 97%
20:00 +26°C° 0.2 mm 1 m/s 731 mmHg 98%
21:00 +26°C° 0.1 mm 1 m/s 731 mmHg 97%
22:00 +26°C° 0.1 mm 1 m/s 731 mmHg 97%
23:00 +26°C° 0.1 mm 1 m/s 731 mmHg 96%

Demain, 6 Juillet, Lundi

Heure Température Précipitation Vent Pression Humidité
00:00 +26°C° 0.1 mm 1 m/s 731 mmHg 96%
01:00 +26°C° 0.1 mm 1 m/s 730 mmHg 96%
02:00 +26°C° 0.1 mm 1 m/s 730 mmHg 96%
03:00 +26°C° 0.9 mm 1 m/s 730 mmHg 96%
04:00 +26°C° 0.9 mm 1 m/s 730 mmHg 96%
05:00 +25°C° 0.9 mm 1 m/s 730 mmHg 97%
06:00 +26°C° 0.9 mm 1 m/s 730 mmHg 97%
07:00 +26°C° 0.9 mm 1 m/s 730 mmHg 97%
08:00 +26°C° 0.9 mm 1 m/s 731 mmHg 97%
09:00 +27°C° 1.2 mm 1 m/s 731 mmHg 96%
10:00 +27°C° 1.2 mm 1 m/s 731 mmHg 96%
11:00 +27°C° 1.2 mm 1 m/s 731 mmHg 96%
12:00 +28°C° 1.4 mm 1 m/s 731 mmHg 95%
13:00 +28°C° 1.4 mm 1 m/s 731 mmHg 95%
14:00 +28°C° 1.4 mm 1 m/s 731 mmHg 95%
15:00 +28°C° 2.1 mm 1 m/s 731 mmHg 96%
16:00 +27°C° 2.1 mm 1 m/s 731 mmHg 97%
17:00 +27°C° 2.1 mm 1 m/s 731 mmHg 97%
18:00 +27°C° 5.6 mm 1 m/s 732 mmHg 98%
19:00 +26°C° 5.6 mm 1 m/s 732 mmHg 98%
20:00 +26°C° 5.6 mm 1 m/s 732 mmHg 98%
21:00 +26°C° 0.7 mm 1 m/s 733 mmHg 98%
22:00 +26°C° 0.7 mm 1 m/s 733 mmHg 98%
23:00 +26°C° 0.7 mm 1 m/s 733 mmHg 98%

Après-demain, 7 Juillet, Mardi

Heure Température Précipitation Vent Pression Humidité
00:00 +26°C° 0.9 mm 1 m/s 733 mmHg 98%
01:00 +26°C° 0.9 mm 1 m/s 733 mmHg 98%
02:00 +26°C° 0.9 mm 1 m/s 732 mmHg 98%
03:00 +26°C° 2.4 mm 1 m/s 732 mmHg 98%
04:00 +26°C° 2.4 mm 1 m/s 732 mmHg 99%
05:00 +24°C° 2.4 mm 0 m/s 732 mmHg 99%
06:00 +26°C° 15.3 mm 1 m/s 732 mmHg 99%
07:00 +26°C° 15.3 mm 1 m/s 733 mmHg 99%
08:00 +26°C° 15.3 mm 1 m/s 733 mmHg 99%
09:00 +26°C° 20.8 mm 2 m/s 733 mmHg 99%
10:00 +26°C° 20.8 mm 2 m/s 733 mmHg 99%
11:00 +26°C° 20.8 mm 2 m/s 733 mmHg 98%
12:00 +24°C° 18.3 mm 2 m/s 733 mmHg 98%
13:00 +23°C° 18.3 mm 2 m/s 733 mmHg 99%
14:00 +22°C° 18.3 mm 1 m/s 733 mmHg 99%
15:00 +23°C° 9.3 mm 1 m/s 733 mmHg 99%
16:00 +23°C° 9.3 mm 1 m/s 733 mmHg 99%
17:00 +23°C° 9.3 mm 1 m/s 733 mmHg 99%
18:00 +23°C° 3.8 mm 1 m/s 733 mmHg 99%
19:00 +23°C° 3.8 mm 1 m/s 733 mmHg 99%
20:00 +22°C° 3.8 mm 0 m/s 734 mmHg 99%
21:00 +22°C° 0.9 mm 0 m/s 734 mmHg 99%
22:00 +22°C° 0.9 mm 0 m/s 734 mmHg 99%
23:00 +22°C° 0.9 mm 0 m/s 735 mmHg 99%

8 Juillet, Mercredi

Heure Température Précipitation Vent Pression Humidité
00:00 +22°C° 0.6 mm 0 m/s 734 mmHg 99%
01:00 +22°C° 0.6 mm 0 m/s 734 mmHg 99%
02:00 +22°C° 0.6 mm 0 m/s 733 mmHg 99%
03:00 +22°C° 0.6 mm 0 m/s 733 mmHg 99%
04:00 +22°C° 0.6 mm 0 m/s 733 mmHg 99%
05:00 +22°C° 0.6 mm 0 m/s 733 mmHg 99%
06:00 +23°C° 1.1 mm 0 m/s 733 mmHg 98%
07:00 +23°C° 1.1 mm 0 m/s 733 mmHg 98%
08:00 +23°C° 1.1 mm 0 m/s 733 mmHg 97%
09:00 +24°C° 2.4 mm 0 m/s 733 mmHg 95%
10:00 +25°C° 2.4 mm 0 m/s 733 mmHg 93%
11:00 +26°C° 2.4 mm 0 m/s 733 mmHg 91%
12:00 +28°C° 1.8 mm 1 m/s 733 mmHg 92%
13:00 +27°C° 1.8 mm 1 m/s 732 mmHg 93%
14:00 +27°C° 1.8 mm 2 m/s 732 mmHg 93%
15:00 +27°C° 1.1 mm 2 m/s 732 mmHg 94%
16:00 +26°C° 1.1 mm 2 m/s 732 mmHg 95%
17:00 +26°C° 1.1 mm 1 m/s 732 mmHg 96%
18:00 +25°C° 0 mm 1 m/s 732 mmHg 96%
19:00 +25°C° 0 mm 1 m/s 732 mmHg 96%
20:00 +25°C° 0 mm 1 m/s 732 mmHg 97%
21:00 +24°C° 0 mm 1 m/s 732 mmHg 97%
22:00 +22°C° 0 mm 0 m/s 732 mmHg 97%
23:00 +22°C° 0 mm 0 m/s 732 mmHg 97%

9 Juillet, Jeudi

Heure Température Précipitation Vent Pression Humidité
00:00 +22°C° 0.2 mm 0 m/s 731 mmHg 97%
01:00 +22°C° 0.2 mm 0 m/s 731 mmHg 97%
02:00 +22°C° 0.2 mm 0 m/s 731 mmHg 97%
03:00 +22°C° 1.3 mm 0 m/s 731 mmHg 98%
04:00 +22°C° 1.3 mm 0 m/s 731 mmHg 98%
05:00 +22°C° 1.3 mm 0 m/s 730 mmHg 99%
06:00 +22°C° 1 mm 0 m/s 731 mmHg 98%
07:00 +22°C° 1 mm 0 m/s 731 mmHg 98%
08:00 +22°C° 1 mm 0 m/s 731 mmHg 98%
09:00 +25°C° 0.6 mm 1 m/s 731 mmHg 96%
10:00 +26°C° 0.6 mm 1 m/s 731 mmHg 95%
11:00 +26°C° 0.6 mm 1 m/s 731 mmHg 93%
12:00 +26°C° 1 mm 1 m/s 730 mmHg 94%
13:00 +26°C° 1 mm 1 m/s 730 mmHg 96%
14:00 +25°C° 1 mm 1 m/s 730 mmHg 97%
15:00 +25°C° 1.2 mm 1 m/s 730 mmHg 97%
16:00 +25°C° 1.2 mm 1 m/s 729 mmHg 97%
17:00 +25°C° 1.2 mm 1 m/s 729 mmHg 97%
18:00 +25°C° 0 mm 1 m/s 729 mmHg 97%
19:00 +24°C° 0 mm 1 m/s 730 mmHg 97%
20:00 +24°C° 0 mm 1 m/s 730 mmHg 97%
21:00 +24°C° 0.1 mm 1 m/s 730 mmHg 97%
22:00 +24°C° 0.1 mm 1 m/s 730 mmHg 98%
23:00 +24°C° 0.1 mm 1 m/s 730 mmHg 98%

10 Juillet, Vendredi

Heure Température Précipitation Vent Pression Humidité
00:00 +24°C° 1 mm 1 m/s 730 mmHg 98%
01:00 +24°C° 1 mm 1 m/s 730 mmHg 98%
02:00 +24°C° 1 mm 1 m/s 729 mmHg 99%
03:00 +22°C° 4.1 mm 0 m/s 729 mmHg 99%
04:00 +22°C° 4.1 mm 0 m/s 729 mmHg 99%
05:00 +22°C° 4.1 mm 0 m/s 729 mmHg 99%
06:00 +22°C° 3.9 mm 0 m/s 730 mmHg 99%
07:00 +22°C° 3.9 mm 0 m/s 730 mmHg 99%
08:00 +23°C° 3.9 mm 0 m/s 730 mmHg 99%
09:00 +25°C° 1.8 mm 1 m/s 730 mmHg 99%
10:00 +25°C° 1.8 mm 1 m/s 730 mmHg 99%
11:00 +25°C° 1.8 mm 1 m/s 731 mmHg 99%
12:00 +25°C° 3.9 mm 1 m/s 730 mmHg 99%
13:00 +25°C° 3.9 mm 1 m/s 730 mmHg 99%
14:00 +25°C° 3.9 mm 1 m/s 730 mmHg 99%
15:00 +25°C° 9 mm 1 m/s 730 mmHg 99%
16:00 +25°C° 9 mm 1 m/s 730 mmHg 99%
17:00 +24°C° 9 mm 1 m/s 730 mmHg 99%
18:00 +24°C° 3.6 mm 1 m/s 730 mmHg 99%
19:00 +24°C° 3.6 mm 1 m/s 730 mmHg 99%
20:00 +24°C° 3.6 mm 1 m/s 730 mmHg 99%
21:00 +24°C° 5.7 mm 1 m/s 730 mmHg 99%
22:00 +24°C° 5.7 mm 1 m/s 731 mmHg 99%
23:00 +24°C° 5.7 mm 1 m/s 731 mmHg 99%
Voir plus